Portada
METAR-TAF:

METAR-TAF

Aeropuertos :

Corrientes, Argentina

Aeropuerto Internacional Doctor Fernando Piragine Niveyro

latitud: 27-27S, longitud: 058-46W, altitud: 62 m

Observación

El informe se hizo hace 46 minutos, a las 09:00 UTC
Viento 6 kt del noreste
Temperatura 24°C
Humedad 78%
Presión 1015 hPa
Visibilidad: 9000 m

METAR: SARC 190900Z 05006KT 9000 NSC 24/20 Q1015

Hora: 06:46 (09:46 UTC)


TAF: falta

Observaciones y pronósticos meteorológicos de más de 4000 aeropuertos (mensajes METAR y TAF).

Los puntos amarillos y rojos representan las estaciones disponibles.

Ponga el ratón en el punto deseado para ver el nombre de la estación.

Haga clic para ver las observaciones y los pronósticos meteorológicos.

Para cambiar el mapa : haga clic en los botones verdes con una cruz de color negro para hacer un zoom, en el botón verde con un guión para alejar o en las flechas verdes para mapas adyacentes.


METAR-TAF: